Wind_Speed
36 37 38 38 39 38 36 33 33 32 31 31 30 29 28 28 27 27 25 23 21 21 20 20 18 17 17 16 15 14 14 13 12 12 12 11 11 11 11 11 11 12 12 12 13 13 13 14 14
37 38 39 40 40 38 35 34 34 34 33 32 31 30 29 30 29 28 26 24 23 22 22 21 20 19 18 18 17 16 15 15 14 14 13 13 13 13 13 13 13 14 14 14 14 15 15 16 16
38 39 40 41 41 38 35 36 36 35 35 33 32 32 31 31 30 29 27 26 25 24 23 22 21 20 20 19 19 18 17 16 16 16 15 15 14 14 14 15 15 15 16 16 16 17 17 17 18
37 39 41 42 40 38 38 38 38 37 35 34 34 33 33 32 30 29 28 28 26 26 25 24 23 22 21 21 20 19 18 18 17 17 17 16 16 16 16 16 16 17 17 17 18 18 18 19 19
38 39 41 42 40 39 40 39 38 38 37 35 35 35 35 33 32 31 30 29 28 27 26 26 25 24 23 22 21 20 20 20 19 18 18 17 17 17 17 18 18 18 19 19 19 19 20 20 20
38 40 41 41 40 40 41 40 39 40 38 37 37 36 36 35 33 33 32 31 30 29 28 27 26 25 24 23 22 22 21 21 20 19 19 19 19 19 19 19 20 20 20 20 21 21 21 22 22
37 39 40 40 40 40 41 41 41 40 40 39 38 38 37 36 35 34 33 32 31 30 29 28 27 26 25 25 24 23 23 22 21 21 20 20 20 20 20 21 21 21 22 22 22 22 23 23 23
38 39 39 40 40 41 41 42 42 41 41 40 40 39 38 37 36 35 34 33 32 31 30 29 29 28 27 26 26 25 24 23 23 22 22 21 21 21 21 22 22 22 23 23 23 23 23 23 24
39 40 40 39 40 40 41 42 42 42 41 41 40 40 38 37 36 36 35 34 33 32 32 31 30 29 29 28 27 26 25 25 24 23 23 23 23 23 23 23 23 23 24 24 24 24 24 25 25
39 40 39 39 40 41 41 43 43 43 42 41 40 40 40 38 37 37 36 35 35 34 33 32 31 31 30 29 28 27 26 26 25 25 24 24 24 24 24 24 25 25 25 25 25 25 26 26 26
39 39 39 40 41 41 42 43 43 44 43 42 41 40 40 39 39 38 37 36 35 35 34 33 32 32 31 30 29 28 28 27 27 26 26 25 25 26 26 26 26 26 26 26 26 26 27 27 28
38 39 40 40 41 42 42 42 43 44 44 42 41 42 41 41 40 39 38 37 36 35 35 34 33 32 31 31 30 29 29 28 28 27 27 27 27 27 27 27 27 27 27 27 27 27 28 28 28
38 38 40 41 42 42 43 43 43 43 43 43 42 42 42 42 41 40 39 38 37 37 36 35 34 34 33 32 31 31 30 29 28 28 28 28 28 28 28 28 29 28 28 28 28 28 29 29 30
36 38 39 39 40 41 42 43 43 43 43 44 43 43 42 41 41 41 40 39 39 38 37 36 35 34 34 33 31 31 31 30 30 29 29 29 29 29 29 29 29 29 29 29 29 30 31 31 32
34 36 37 38 40 41 42 42 42 42 43 44 44 43 42 41 41 41 41 40 40 39 38 37 36 35 34 33 32 32 32 31 30 30 30 30 29 29 29 30 30 30 30 30 30 31 32 32 32
35 36 36 36 39 40 41 41 41 42 43 43 44 44 43 43 42 42 41 41 40 40 39 38 37 36 35 34 33 32 32 31 30 30 30 30 29 29 29 30 29 29 29 30 30 31 32 32 32
34 34 34 34 36 38 40 40 41 43 43 43 43 44 44 44 44 43 42 41 41 40 39 38 38 37 36 35 35 33 32 32 32 31 31 31 30 29 29 29 29 29 29 30 31 32 32 33 33
31 32 33 34 34 36 38 39 40 42 42 43 44 44 44 44 45 44 44 42 41 41 40 39 38 38 37 36 36 35 34 32 32 32 31 31 31 30 30 30 30 30 31 31 32 32 33 33 33
30 31 33 33 34 36 37 38 39 41 42 43 44 43 43 44 45 45 44 43 42 41 40 40 39 38 38 37 37 36 34 33 33 33 32 31 31 31 31 32 33 32 32 32 32 32 32 33 32
28 30 31 32 33 35 36 37 39 40 40 41 42 43 43 44 45 44 43 43 42 41 40 40 40 39 39 38 38 37 36 35 34 34 33 32 32 32 33 33 33 33 33 33 33 32 32 32 32
28 29 30 30 31 33 34 35 37 39 40 40 41 43 44 44 44 44 43 43 42 41 41 40 40 39 39 39 38 38 37 36 35 34 34 34 34 33 33 32 33 33 33 33 33 32 32 32 32
27 28 28 29 30 31 32 33 35 36 39 40 40 41 43 43 42 42 43 42 42 42 41 41 40 40 39 39 39 38 37 37 36 35 35 35 35 34 34 33 33 33 33 33 33 32 33 33 32
26 26 27 28 29 30 31 33 33 35 36 37 38 39 40 42 42 41 42 43 42 42 42 41 41 40 40 40 39 39 38 37 36 36 35 35 35 35 34 34 34 33 33 33 33 33 33 33 33
24 25 25 26 27 29 29 32 33 33 34 34 36 37 38 39 40 41 42 42 43 42 41 41 41 41 40 40 40 39 39 38 37 36 36 35 35 35 34 34 34 34 33 34 33 34 34 34 34
22 24 23 24 26 28 28 30 31 31 32 33 34 35 36 37 38 39 40 40 41 41 41 41 41 41 41 40 40 40 39 39 38 37 37 36 35 35 34 33 33 33 33 34 34 34 34 34 34
20 22 23 24 26 28 29 30 29 30 31 32 33 34 35 36 37 37 38 39 39 40 41 41 41 41 41 41 41 40 40 39 38 37 37 37 36 35 34 34 33 33 33 34 34 34 33 33 33
19 20 22 23 24 25 27 28 28 28 30 31 32 33 33 35 36 35 36 38 38 39 40 40 40 41 41 41 41 40 40 40 39 38 37 37 37 36 35 34 34 34 33 33 33 33 32 32 33
18 19 21 23 24 25 25 26 28 28 29 29 30 31 32 34 34 35 35 36 37 38 39 40 40 40 40 40 40 40 40 40 39 38 38 37 37 36 36 35 34 34 34 33 33 33 33 33 32
17 19 21 23 23 24 24 25 26 27 28 29 29 30 31 33 34 34 35 35 36 37 38 39 40 40 40 40 40 39 40 39 39 39 38 37 37 37 36 35 34 34 34 33 33 33 32 33 33
17 18 20 21 22 23 24 25 24 25 27 29 29 29 30 32 33 33 34 34 35 36 37 38 39 40 40 39 39 39 39 40 39 39 38 38 38 37 36 36 35 34 34 33 33 33 32 32 33
Wind_Direction
236 235 234 233 233 233 233 232 232 232 232 231 231 232 233 233 234 234 234 233 231 233 233 234 234 235 236 237 238 238 239 241 243 247 250 255 261 266 270 274 277 281 284 288 292 295 299 301 301
236 235 234 233 233 232 232 232 232 232 232 232 232 232 233 233 235 236 236 235 233 234 235 235 235 237 238 238 239 240 242 243 245 249 253 258 263 267 271 274 277 280 284 287 291 293 296 297 299
236 234 234 234 233 231 231 232 233 232 231 231 231 232 233 233 234 236 236 236 235 234 235 235 236 237 238 239 240 243 244 245 248 252 255 259 263 267 270 275 278 281 283 286 289 291 293 295 296
235 234 233 233 232 230 230 232 232 232 232 231 231 232 233 234 235 236 235 235 235 235 235 236 237 237 239 240 242 243 245 247 250 253 256 260 264 266 270 275 278 281 283 286 288 290 292 294 295
235 234 234 233 232 230 230 232 233 232 232 231 231 232 233 233 234 235 234 235 235 235 235 236 237 237 239 240 242 244 247 250 251 254 257 260 263 267 271 274 277 280 283 285 287 289 291 293 294
235 234 234 233 231 230 231 231 231 232 231 232 232 232 232 232 233 234 234 234 235 235 235 235 237 237 238 240 242 245 247 249 251 255 258 261 263 267 271 274 277 279 281 283 286 288 290 292 293
235 235 234 233 231 230 231 231 232 232 232 231 232 233 232 232 232 233 234 234 235 235 234 234 235 237 238 239 241 244 247 249 252 255 258 261 264 268 272 274 277 279 280 283 285 288 290 291 292
236 235 234 232 232 231 231 232 232 233 233 232 232 233 232 232 233 233 233 233 234 234 234 235 236 236 237 239 241 244 246 249 252 255 259 262 266 269 271 274 276 279 281 283 285 287 289 290 292
237 236 234 233 233 232 232 232 232 233 233 232 232 233 233 232 233 233 232 233 234 234 234 234 235 236 238 240 242 244 246 250 253 256 259 263 267 269 272 274 276 278 280 282 284 286 288 290 291
237 236 235 234 233 233 233 232 232 233 233 233 233 233 233 232 232 232 232 232 233 234 233 233 235 237 239 240 242 245 247 250 254 258 261 264 267 269 272 274 276 278 280 282 283 285 287 289 291
237 236 235 234 234 233 233 233 232 232 232 231 232 232 233 232 232 233 232 232 232 233 233 234 236 237 240 241 243 246 249 252 255 259 262 264 267 270 272 274 277 279 280 282 283 285 287 288 291
239 237 235 234 234 233 233 233 233 233 233 231 231 232 232 232 232 232 232 231 231 232 234 235 237 238 240 242 244 247 250 253 257 260 263 265 267 269 272 274 276 278 279 281 282 285 286 288 290
238 236 235 234 234 233 232 232 232 233 233 232 230 231 232 232 232 232 232 232 232 233 234 235 237 238 240 243 245 247 251 254 257 260 263 266 267 269 271 273 275 277 278 280 282 284 286 288 290
238 236 236 234 234 234 233 232 232 232 233 232 231 231 231 232 232 232 232 232 233 234 235 236 237 239 241 244 246 248 250 253 256 260 263 265 267 269 271 272 275 276 278 279 281 284 286 288 290
236 237 236 235 234 234 233 232 231 231 232 233 232 230 231 231 232 231 232 232 233 234 236 237 238 240 242 244 246 249 250 253 256 259 263 265 267 269 271 272 274 276 277 279 281 283 286 288 290
235 236 236 235 234 234 235 234 231 232 231 232 232 231 231 231 231 231 232 232 233 234 236 238 239 240 242 244 246 249 250 252 256 260 262 265 267 268 270 271 273 276 277 279 282 284 287 289 291
235 237 238 237 236 235 235 235 233 233 232 233 233 232 231 231 232 232 231 232 233 234 236 238 239 241 242 244 246 249 251 253 256 259 262 264 265 267 270 272 273 275 278 279 281 285 287 289 291
236 238 237 237 237 236 236 235 234 233 233 233 233 232 231 231 232 233 232 232 233 234 235 237 239 241 243 245 247 249 252 253 256 259 261 263 264 266 268 271 275 277 278 281 282 284 286 289 290
238 239 239 238 238 239 237 236 235 234 233 233 233 232 232 231 232 233 234 233 234 235 235 237 239 241 243 245 247 249 252 254 257 259 261 262 264 266 269 272 274 277 280 282 283 284 286 288 289
238 239 237 236 238 239 238 236 235 234 233 233 233 233 232 231 232 233 234 234 234 235 236 237 239 241 243 245 247 250 252 254 257 259 261 262 265 268 270 273 275 276 279 281 283 284 286 288 288
237 238 238 237 238 239 239 236 235 235 235 233 233 234 233 232 233 234 234 234 234 235 237 238 239 241 243 245 247 250 252 255 257 259 261 263 265 267 270 272 274 275 278 281 283 284 285 287 287
236 235 237 238 238 237 238 239 235 236 235 233 233 234 234 233 233 233 234 234 235 236 238 239 240 242 243 245 247 250 253 254 256 258 261 263 265 267 269 271 273 276 278 279 282 284 285 286 287
238 238 238 239 239 237 236 239 238 237 236 234 234 235 236 235 233 233 234 235 236 237 238 240 241 242 244 245 247 250 252 253 255 258 260 262 265 267 269 270 272 275 278 278 281 284 284 286 286
238 237 238 239 239 238 237 240 240 238 238 236 235 234 236 236 234 234 234 235 236 237 238 240 241 243 244 246 248 250 252 253 255 257 259 261 264 266 268 270 273 275 277 278 281 283 284 285 287
238 237 237 238 239 239 238 241 242 240 238 237 237 235 235 236 235 235 235 236 237 238 239 239 241 243 245 246 248 250 251 253 254 256 258 261 263 266 268 270 272 274 276 278 279 282 284 285 287
241 240 238 240 242 241 241 242 242 241 240 239 238 237 236 236 237 237 237 238 238 239 239 240 241 243 244 246 248 250 251 252 253 255 257 259 262 265 267 269 271 273 276 279 280 282 283 284 286
242 240 240 243 245 243 240 243 244 243 241 239 238 237 237 238 238 238 239 239 239 239 240 241 241 242 243 245 247 249 250 251 253 254 256 259 261 263 266 268 270 273 275 278 280 281 284 285 286
245 242 241 243 247 247 246 246 246 243 242 241 239 238 238 239 238 239 240 240 240 241 241 241 242 242 243 245 247 248 250 251 252 254 256 258 261 263 265 267 270 272 274 277 279 281 282 284 287
245 242 241 243 247 249 247 245 246 246 245 242 240 240 240 240 239 240 241 241 242 242 242 242 243 243 244 245 247 248 250 251 252 254 255 258 260 262 264 266 269 272 274 276 278 280 281 284 286
246 245 242 243 246 250 251 250 247 248 246 243 241 242 240 239 239 240 241 243 243 243 243 242 243 244 244 245 247 248 249 251 252 254 256 257 260 262 264 265 268 271 273 275 276 278 281 284 286
Height
5791 5793 5796 5800 5803 5807 5812 5817 5820 5823 5826 5829 5832 5835 5838 5840 5843 5846 5847 5849 5852 5854 5856 5857 5859 5861 5863 5864 5865 5867 5868 5869 5870 5871 5871 5872 5872 5873 5873 5873 5874 5874 5874 5874 5874 5873 5873 5872 5872
5783 5786 5790 5792 5796 5801 5808 5812 5814 5817 5821 5824 5828 5830 5833 5835 5837 5840 5843 5846 5849 5851 5853 5854 5856 5858 5860 5861 5863 5864 5865 5867 5868 5869 5869 5870 5871 5871 5871 5871 5872 5872 5872 5872 5871 5871 5871 5870 5870
5776 5778 5782 5786 5790 5797 5802 5805 5808 5811 5815 5819 5823 5825 5828 5831 5833 5836 5839 5842 5845 5847 5849 5851 5853 5855 5857 5858 5860 5861 5863 5864 5865 5866 5867 5868 5868 5869 5869 5869 5869 5869 5869 5869 5869 5869 5868 5868 5867
5768 5771 5775 5779 5785 5791 5795 5798 5801 5805 5809 5813 5817 5820 5823 5826 5829 5832 5835 5838 5841 5843 5846 5848 5850 5852 5854 5855 5857 5858 5860 5861 5862 5863 5864 5865 5865 5866 5866 5867 5867 5867 5867 5866 5866 5866 5865 5865 5864
5760 5763 5767 5772 5779 5785 5788 5791 5795 5798 5803 5807 5811 5814 5817 5821 5824 5827 5830 5833 5836 5839 5841 5844 5846 5848 5850 5852 5853 5855 5856 5858 5859 5860 5861 5862 5862 5863 5863 5864 5864 5864 5864 5863 5863 5863 5862 5861 5861
5753 5756 5760 5766 5772 5777 5781 5784 5788 5792 5797 5800 5804 5808 5811 5815 5819 5822 5825 5828 5831 5834 5837 5839 5842 5844 5846 5848 5850 5851 5853 5854 5855 5857 5858 5858 5859 5860 5860 5860 5861 5861 5860 5860 5860 5859 5858 5858 5857
5746 5749 5753 5759 5764 5769 5774 5777 5781 5785 5790 5794 5798 5801 5805 5809 5813 5816 5819 5823 5826 5829 5832 5835 5837 5840 5842 5844 5846 5848 5849 5851 5852 5853 5854 5855 5856 5856 5857 5857 5857 5857 5857 5856 5856 5855 5855 5854 5853
5737 5742 5746 5751 5756 5762 5766 5770 5774 5778 5783 5787 5791 5795 5799 5803 5807 5811 5814 5817 5821 5824 5827 5830 5833 5835 5837 5840 5842 5843 5845 5847 5848 5849 5850 5851 5852 5852 5853 5853 5853 5853 5853 5852 5852 5851 5850 5850 5849
5728 5734 5738 5744 5749 5753 5757 5762 5767 5770 5775 5779 5784 5788 5793 5797 5801 5804 5808 5812 5815 5819 5822 5825 5828 5830 5833 5835 5837 5839 5841 5842 5844 5845 5846 5847 5848 5848 5849 5849 5849 5849 5848 5848 5847 5847 5846 5845 5844
5720 5725 5732 5736 5740 5744 5748 5754 5759 5763 5768 5773 5778 5782 5786 5790 5794 5798 5802 5806 5810 5813 5817 5820 5823 5825 5828 5830 5832 5834 5836 5838 5840 5841 5842 5843 5843 5844 5844 5844 5844 5844 5844 5843 5843 5842 5841 5840 5839
5712 5717 5723 5726 5730 5735 5740 5745 5750 5754 5759 5765 5770 5774 5778 5783 5788 5791 5796 5800 5803 5807 5811 5814 5817 5820 5822 5825 5827 5830 5832 5833 5835 5836 5837 5838 5839 5839 5839 5839 5839 5839 5839 5838 5838 5837 5836 5835 5834
5704 5709 5713 5717 5721 5726 5731 5736 5741 5746 5752 5757 5762 5766 5771 5776 5781 5785 5789 5793 5797 5801 5805 5808 5811 5814 5817 5819 5822 5824 5826 5828 5830 5831 5832 5833 5833 5834 5834 5834 5834 5834 5834 5833 5832 5832 5831 5829 5828
5695 5700 5704 5708 5712 5717 5722 5728 5733 5738 5744 5749 5754 5759 5764 5769 5773 5778 5782 5787 5791 5795 5798 5802 5805 5808 5811 5814 5816 5818 5821 5823 5824 5825 5826 5827 5828 5828 5828 5829 5828 5828 5828 5828 5827 5826 5825 5824 5822
5687 5691 5695 5699 5704 5709 5713 5719 5725 5731 5735 5740 5746 5751 5756 5761 5766 5771 5775 5780 5784 5788 5792 5796 5799 5802 5805 5808 5810 5812 5814 5817 5818 5819 5820 5821 5822 5822 5823 5823 5823 5822 5822 5822 5821 5820 5819 5818 5816
5679 5683 5687 5691 5696 5700 5705 5710 5717 5723 5727 5732 5738 5743 5749 5754 5758 5763 5768 5773 5777 5781 5785 5789 5793 5796 5799 5802 5804 5806 5808 5810 5812 5813 5814 5815 5816 5816 5816 5816 5816 5816 5816 5815 5815 5814 5813 5811 5809
5671 5674 5679 5684 5688 5692 5698 5703 5709 5713 5719 5724 5730 5735 5741 5746 5750 5755 5760 5765 5770 5774 5778 5782 5786 5789 5792 5795 5798 5799 5802 5804 5806 5807 5808 5809 5809 5810 5810 5810 5810 5809 5809 5809 5808 5807 5806 5804 5802
5662 5667 5672 5677 5681 5685 5689 5695 5701 5705 5711 5716 5722 5727 5733 5738 5742 5747 5752 5757 5762 5767 5771 5775 5779 5783 5786 5788 5791 5793 5796 5798 5799 5801 5802 5802 5803 5804 5803 5803 5803 5803 5803 5802 5802 5801 5800 5798 5796
5658 5662 5666 5670 5674 5677 5682 5687 5692 5697 5702 5708 5713 5718 5724 5729 5734 5739 5745 5750 5755 5759 5764 5768 5772 5775 5779 5781 5784 5787 5789 5791 5792 5794 5795 5796 5797 5797 5797 5797 5797 5796 5796 5796 5795 5794 5792 5791 5789
5653 5656 5660 5664 5667 5671 5675 5679 5684 5689 5694 5700 5705 5710 5716 5721 5726 5731 5737 5742 5747 5752 5756 5760 5764 5768 5771 5775 5777 5780 5782 5784 5785 5787 5788 5789 5790 5790 5791 5790 5790 5790 5789 5789 5788 5786 5785 5783 5781
5646 5649 5653 5657 5660 5663 5667 5672 5677 5681 5686 5692 5696 5702 5707 5713 5718 5724 5729 5735 5739 5744 5748 5753 5756 5760 5764 5767 5770 5772 5775 5777 5778 5780 5781 5782 5783 5783 5783 5783 5783 5783 5782 5781 5780 5779 5778 5776 5774
5640 5643 5647 5651 5653 5656 5660 5665 5669 5674 5678 5683 5688 5693 5699 5705 5711 5716 5721 5726 5731 5736 5740 5745 5748 5752 5756 5759 5762 5764 5767 5769 5771 5773 5774 5775 5775 5776 5776 5776 5775 5775 5775 5774 5773 5772 5770 5769 5767
5635 5639 5642 5645 5647 5650 5655 5658 5663 5666 5671 5676 5681 5686 5691 5697 5702 5708 5713 5718 5723 5728 5732 5737 5741 5744 5748 5751 5754 5756 5759 5761 5763 5765 5766 5767 5768 5768 5768 5769 5768 5768 5768 5767 5766 5764 5763 5762 5760
5631 5634 5637 5639 5641 5645 5649 5652 5657 5659 5663 5669 5674 5679 5684 5689 5694 5700 5705 5710 5715 5719 5724 5728 5732 5736 5739 5743 5746 5748 5751 5753 5755 5756 5758 5759 5760 5760 5761 5761 5761 5760 5760 5759 5758 5757 5756 5754 5752
5626 5629 5632 5633 5636 5639 5644 5647 5650 5653 5658 5663 5668 5673 5677 5681 5687 5692 5697 5702 5707 5711 5716 5720 5724 5727 5731 5734 5737 5740 5742 5744 5746 5748 5750 5751 5752 5752 5753 5753 5753 5753 5752 5752 5751 5750 5748 5747 5745
5621 5624 5627 5628 5630 5634 5639 5641 5645 5648 5653 5657 5661 5666 5670 5674 5679 5684 5689 5694 5698 5703 5707 5711 5715 5718 5722 5725 5728 5731 5733 5735 5738 5740 5741 5742 5743 5744 5745 5745 5745 5745 5744 5744 5743 5742 5741 5739 5738
5617 5620 5624 5625 5627 5631 5633 5635 5641 5643 5647 5651 5655 5659 5664 5668 5672 5677 5681 5685 5690 5694 5698 5702 5706 5709 5713 5716 5719 5722 5724 5727 5729 5731 5733 5734 5735 5736 5737 5737 5737 5737 5737 5736 5735 5734 5733 5731 5730
5613 5616 5620 5622 5623 5626 5628 5632 5635 5638 5641 5645 5648 5653 5657 5661 5665 5669 5673 5677 5681 5685 5689 5693 5696 5700 5703 5707 5710 5712 5715 5718 5720 5722 5724 5725 5727 5728 5729 5729 5729 5729 5729 5728 5727 5726 5725 5723 5722
5611 5613 5616 5617 5619 5621 5624 5627 5630 5633 5635 5639 5642 5646 5650 5654 5658 5662 5666 5669 5673 5677 5681 5684 5687 5691 5694 5697 5700 5703 5706 5708 5711 5713 5715 5717 5718 5719 5720 5721 5721 5721 5720 5720 5719 5718 5717 5716 5714
5608 5610 5611 5613 5615 5618 5619 5624 5625 5627 5630 5633 5636 5640 5643 5647 5651 5654 5658 5661 5665 5668 5672 5675 5679 5682 5685 5688 5691 5694 5696 5699 5701 5704 5706 5707 5709 5710 5711 5712 5712 5712 5712 5712 5711 5710 5708 5708 5706
5603 5605 5607 5610 5611 5613 5615 5620 5620 5622 5624 5627 5630 5633 5636 5640 5643 5647 5650 5653 5656 5660 5663 5666 5669 5673 5676 5679 5682 5684 5687 5689 5692 5694 5696 5698 5700 5701 5702 5703 5703 5704 5703 5703 5703 5702 5701 5700 5698